Weather History for Puerto Vallarta, Mexico

Change the Weather History Date:

Monday, December 2, 2013

  Actual Average Record
Temperature  
Mean Temperature 75 °F -  
Max Temperature 84 °F 80 °F - ()
Min Temperature 66 °F 61 °F - ()
Cooling Degree Days 10    
Growing Degree Days 25 (Base 50)    
Moisture  
Dew Point 67 °F    
Average Humidity 77    
Maximum Humidity 94    
Minimum Humidity 54    
Precipitation  
Precipitation 0.00 in - - ()
Sea Level Pressure  
Sea Level Pressure 29.91 in    
Wind  
Wind Speed 3 mph ()    
Max Wind Speed 14 mph    
Max Gust Speed -    
Visibility 12.8 miles    
Events      
T = Trace of Precipitation, MM = Missing Value Source: Averaged Metar Reports

Daily Weather History Graph

Daily Weather History Graph

Search for Another Location

Airport:

Trip Planner

Search our weather history database for the weather conditions in past years. The results will help you decide how hot, cold, wet, or windy it might be!

Date:

Astronomy

Dec. 02, 2013 Rise Set
Actual Time 7:21 AM CST 6:19 PM CST
Civil Twilight 6:57 AM CST 6:43 PM CST
Nautical Twilight 6:30 AM CST 7:10 PM CST
Astronomical Twilight 6:03 AM CST 7:37 PM CST
Moon 6:54 AM CST (12/2) 6:21 PM CST (12/2)
Length of Visible Light 11h 45m
Length of Day
10h 57m
Waning Crescent, 0% of the Moon is Illuminated
Dec 2
Waning Crescent
Dec 2
New
Dec 9
First Quarter
Dec 17
Full
Dec 25
Last Quarter

Hourly Weather History & Observations

Time (CST) Temp. Heat Index Dew Point Humidity Pressure Visibility Wind Dir Wind Speed Gust Speed Precip Events Conditions
12:45 AM 69.8 °F - 66.2 °F 88% 29.96 in 12.0 mi NNE 5.8 mph - N/A   Scattered Clouds
1:49 AM 69.8 °F - 64.4 °F 83% 29.95 in 12.0 mi NNE 4.6 mph - N/A   Scattered Clouds
2:43 AM 68.0 °F - 64.4 °F 88% 29.96 in 10.0 mi Calm Calm - N/A   Clear
3:45 AM 68.0 °F - 62.6 °F 83% 29.93 in 10.0 mi North 6.9 mph - N/A   Scattered Clouds
4:43 AM 66.2 °F - 62.6 °F 88% 29.92 in 10.0 mi Calm Calm - N/A   Scattered Clouds
5:44 AM 66.2 °F - 62.6 °F 88% 29.89 in 10.0 mi Calm Calm - N/A   Clear
6:45 AM 66.2 °F - 62.6 °F 88% 29.92 in 12.0 mi Calm Calm - N/A   Scattered Clouds
8:44 AM 69.8 °F - 62.6 °F 78% 29.90 in 15.0 mi Calm Calm - N/A   Clear
9:45 AM 73.4 °F - 64.4 °F 73% 29.93 in 15.0 mi Calm Calm - N/A   Clear
10:50 AM 80.6 °F 82.3 °F 64.4 °F 58% 29.96 in 15.0 mi Calm Calm - N/A   Clear
11:49 AM 82.4 °F 83.9 °F 64.4 °F 54% 29.93 in 15.0 mi Calm Calm - N/A   Partly Cloudy
12:53 PM 84.2 °F 86.6 °F 66.2 °F 55% 29.92 in 15.0 mi South 5.8 mph - N/A   Scattered Clouds
1:43 PM 82.4 °F 84.6 °F 66.2 °F 58% 29.89 in 15.0 mi SSW 11.5 mph - N/A   Scattered Clouds
2:49 PM 82.4 °F 85.4 °F 68.0 °F 62% 29.88 in 15.0 mi SSE 10.4 mph - N/A   Scattered Clouds
3:49 PM 82.4 °F 87.2 °F 71.6 °F 70% 29.87 in 15.0 mi South 13.8 mph - N/A   Mostly Cloudy
4:50 PM 80.6 °F 84.6 °F 71.6 °F 74% 29.87 in 15.0 mi SSE 12.7 mph - N/A   Mostly Cloudy
5:51 PM 80.6 °F 84.6 °F 71.6 °F 74% 29.85 in 12.0 mi South 8.1 mph - N/A   Mostly Cloudy
6:43 PM 78.8 °F - 71.6 °F 78% 29.88 in 12.0 mi South 6.9 mph - N/A   Mostly Cloudy
7:47 PM 77.0 °F - 69.8 °F 78% 29.87 in 12.0 mi Calm Calm - N/A   Clear
8:53 PM 75.2 °F - 69.8 °F 83% 29.87 in 12.0 mi Calm Calm - N/A   Clear
9:48 PM 73.4 °F - 68.0 °F 83% 29.90 in 12.0 mi Calm Calm - N/A   Scattered Clouds
10:48 PM 71.6 °F - 68.0 °F 88% 29.90 in 12.0 mi NE 4.6 mph - N/A   Mostly Cloudy
11:49 PM 69.8 °F - 68.0 °F 94% 29.88 in 12.0 mi Calm Calm - N/A   Mostly Cloudy